Location: Ayer Observatory
(42.2600°N, 71.0700°W)
Time: 06:27:13
(UTC-04:00)

XW-2A - Visible Passes

Search period start: 07 August 2020 00:00
Search period end: 17 August 2020 00:00
Orbit: 426 x 446 km, 97.3° (Epoch: 07 August)

Date Brightness Start Highest point End Pass type
(mag) Time Alt. Az. Time Alt. Az. Time Alt. Az.
07 Aug ? 21:06:19 14° SSE 21:09:05 88° E 21:12:22 10° NNW visible
08 Aug ? 20:27:27 10° SE 20:30:09 24° ENE 20:32:52 10° NNE visible
08 Aug ? 22:00:30 10° SW 22:02:38 16° W 22:04:47 10° NW visible
09 Aug ? 21:20:58 16° S 21:23:24 56° W 21:26:38 10° NNW visible
10 Aug ? 20:41:36 12° SE 20:44:23 37° ENE 20:47:26 10° N visible
10 Aug ? 22:16:15 10° WSW 22:17:03 11° W 22:17:51 10° WNW visible
11 Aug ? 21:35:36 16° SSW 21:37:44 34° W 21:40:46 10° NNW visible
12 Aug ? 20:56:14 16° SSE 20:58:38 60° ENE 21:01:52 10° N visible
13 Aug ? 20:17:26 10° ESE 20:19:44 18° ENE 20:22:02 10° NNE visible
13 Aug ? 21:50:13 14° SW 21:52:05 22° W 21:54:42 10° NW visible
14 Aug ? 21:10:51 21° S 21:12:53 82° WSW 21:16:10 10° NNW visible
15 Aug ? 20:31:28 12° SE 20:33:54 26° ENE 20:36:42 10° NNE visible
15 Aug ? 22:04:50 11° SW 22:06:26 15° W 22:08:22 10° WNW visible
16 Aug ? 21:25:27 23° SSW 21:27:09 49° W 21:30:21 10° NNW visible
